Regional Weather Roundup
Issued by NWS

Home | Current Version | Previous Version | Graphics & Text | Print | Product List | Glossary On
Versions: 1 2 3 4 5 6 7 8 9 10 11 12 13 14 15 16 17 18 19 20 21 22 23 24 25 26 27 28
000
ASUS45 KTFX 212110
RWRMT
MONTANA REGIONAL WEATHER ROUNDUP
NATIONAL WEATHER SERVICE GREAT FALLS MT
200 PM MST TUE FEB 21 2017

NOTE: "FAIR" INDICATES FEW OR NO CLOUDS BELOW 12000 FEET WITH NO
SIGNIFICANT WEATHER AND/OR OBSTRUCTIONS TO VISIBILITY.

MTZ001>007-043-212200-
WEST OF THE DIVIDE

CITY           SKY/WX    TMP DP  RH WIND       PRES   REMARKS
KALISPELL      CLOUDY    37  33  85 CALM      29.64F FOG
MISSOULA       CLOUDY    36  36 100 W12       29.68F WCI  28
BUTTE          CLOUDY    44  23  43 SW16G25   29.69S
MULLAN PASS    SNOW      29  29 100 VRB7      29.60R VSB 1/4 WCI  22
ANACONDA         N/A     45  28  53 SW21G30   29.68F
DEER LODGE       N/A     48  21  34 SW8G23    29.68S
EUREKA           N/A     36  32  87 CALM      29.68S VSB 3/4
HAMILTON         N/A     52  21  30 S15G25    29.66S
LIBBY            N/A     34  34 100 CALM      29.66S
PLAINS           N/A     35  30  82 CALM      29.69F
RONAN            N/A     35  33  92 CALM      29.72S
$$

MTZ008-052>055-212200-
SOUTHWEST MONTANA

CITY           SKY/WX    TMP DP  RH WIND       PRES   REMARKS
BOZEMAN        MOSUNNY   51  28  41 SW17G29   29.70S
DILLON         MOSUNNY   48  23  37 SW24G39   29.73F
W YELLOWSTONE  CLOUDY    36  28  75 SW14G28   29.82F WCI  27
ENNIS          SUNNY     48  27  43 SW22      29.78F
THREE FORKS      N/A     56  56 100 SW30      29.69F
TWIN BRIDGES     N/A     50  21  32 S30       29.74F
$$

MTZ009-010-012-014-046-048-049-054-212200-
EAST SLOPES AND CENTRAL MONTANA

CITY           SKY/WX    TMP DP  RH WIND       PRES   REMARKS
CUT BANK       LGT SNOW  33  33 100 CALM      29.64F VSB 3/4
GREAT FALLS    CLOUDY    42  36  79 E6        29.61S
MALMSTROM AFB  CLOUDY    43  39  87 CALM      29.63R
HELENA         CLOUDY    45  36  70 E5        29.63F
AUGUSTA          N/A     38  32  78 NE14      29.61R WCI  30
BOWMANS CRNR   DRIZZLE   40  34  79 SW22G28   29.60R
CHOTEAU          N/A     37  36  93 NE13G18   29.65S WCI  29
CONRAD           N/A     35  35 100 N5        29.70S
POWER          PTSUNNY   41  36  81 NE8       29.61S
RAYNESFORD     PTSUNNY   47  32  56 W24G30    29.61S
ULM            LGT RAIN  45  36  71 MISG      29.63R
$$

MTZ011-013-016-021-045-047-050-051-212200-
NORTH CENTRAL MONTANA

CITY           SKY/WX    TMP DP  RH WIND       PRES   REMARKS
HAVRE          MIX PCPN  37  35  92 S5        29.65F
LEWISTOWN      CLOUDY    46  33  60 W22G36    29.63R
N BAR RANCH      N/A     52  23  32 W13G23    29.62F
CHINOOK          N/A     39  36  87 CALM      29.67S
DENTON         LGT RAIN  43  37  80 SW9       29.61R
FORT BENTON      N/A     39  36  87 MISG      29.65
GEYSER         PTSUNNY   40  37  89 NE3       29.62R
GRASS RANGE    LGT RAIN  49  33  53 W17G28    29.56F
JUDITH GAP       N/A     53  22  29 W35G53    29.60F
ROY            LGT RAIN  46  39  77 MISG      29.59F
STANFORD       LGT RAIN  37  36  94 SW13      29.63S WCI  29
WINIFRED       PTSUNNY   42  38  86 N8        29.61R
$$

MTZ017>020-022>027-061-062-212200-
NORTHEAST MONTANA

CITY           SKY/WX    TMP DP  RH WIND       PRES   REMARKS
GLASGOW        LGT RAIN  46  36  68 NW12      29.63F
JORDAN           N/A     50  38  63 SE3       29.61F
SIDNEY         LGT RAIN  46  40  79 S8        29.64F
WOLF POINT     CLOUDY    41  36  82 SW6       29.64F
PLENTYWOOD       N/A     45  36  70 CALM      29.63S
POPLAR           N/A     41  36  81 CALM      29.64F
SCOBEY           N/A     46  31  56 W3        29.64S
$$

MTZ028>42-056>058-212200-
SOUTHCENTRAL AND SOUTHEAST MONTANA

CITY           SKY/WX    TMP DP  RH WIND       PRES   REMARKS
BAKER          CLOUDY    55  35  47 SW5       29.66F
BILLINGS       MOSUNNY   61  23  23 SW26G41   29.60F
LIVINGSTON     CLOUDY    52  25  35 SW39G52   29.66R
MILES CITY     SUNNY     59  38  45 SE7       29.60F
BIG TIMBER     MOSUNNY   48  32  53 W20       29.69R
EKALAKA          N/A     60  31  33 SW10      29.67F
FORSYTH          N/A     63  37  39 W6        29.58F
HARLOWTON      PTSUNNY   55  18  23 W38G52    29.60F
LAUREL           N/A     60  23  24 S25       29.66S
$$

REGIONAL REPORTS...DAKOTAS

CITY           SKY/WX    TMP DP  RH WIND       PRES   REMARKS
WILLISTON      CLOUDY    41  32  70 SW7       29.65S
MINOT          CLOUDY    46  36  68 SW8       29.63S
DICKINSON      PTSUNNY   51  33  50 N10       29.65F
BEACH            N/A    N/A N/A N/A MISG        N/A
CROSBY           N/A     41  39  93 SW13      29.65S
TIOGA            N/A     39  39 100 W7        29.65F
WATFORD CITY     N/A     41  36  81 W6        29.65F
BISMARCK       CLOUDY    50  36  58 CALM      29.67F
GRAND FORKS    PTSUNNY   40  33  76 NW12      29.67R HAZE
FARGO          MOSUNNY   47  39  74 W9        29.66S
BUFFALO SD       N/A     68  31  25 W18G25    29.58F
RAPID CITY     SUNNY     70  28  21 W28G38    29.68F
$$

REGIONAL REPORTS...WYOMING/IDAHO/WASHINGTON

CITY           SKY/WX    TMP DP  RH WIND       PRES   REMARKS
GILLETTE       SUNNY     64  24  21 W29G41    29.70F
SHERIDAN       SUNNY     60  31  33 W17G26    29.71F
BUFFALO WY     MOSUNNY   61  25  25 SW24      29.73F
CODY           LGT RAIN  42  34  73 VRB5G18   29.80F
YELLOWSTONE LA   N/A     32  24  72 W9G28     29.85F WCI  24
IDAHO FALLS    PTSUNNY   39  33  79 SW14      29.91F WCI  31
SALMON         CLOUDY    45  32  61 S20       29.77S
BOISE          MOSUNNY   55  27  34 SW17G29   29.90F
SPOKANE        FLURRIES  35  33  92 NW5       29.73R
$$

REGIONAL REPORTS...ALBERTA

CITY           SKY/WX    TMP DP  RH WIND       PRES   REMARKS
EDMONTON       PTSUNNY   36  28  75 NW8       29.67S WCI  29
CALGARY        PTSUNNY   34  25  69 VRB2      29.64F HAZE
LETHBRIDGE     FOG       32  30  93 N3        29.66F VSB 1
MEDICINE HAT   CLOUDY    37  34  87 E3        29.67F
WATERTON GATE    N/A     34  30  86 NE2         N/A
CARDSTON         N/A     30  28  93 N3          N/A
MILK RIVER       N/A     37  32  81 NE7         N/A
ONEFOUR          N/A     36  32  87 E8          N/A  WCI  29
$$

REGIONAL REPORTS...SASKATCHEWAN

CITY           SKY/WX    TMP DP  RH WIND       PRES   REMARKS
SWIFT CURRENT  CLOUDY    32  30  93 NE9       29.66F WCI  24
REGINA         CLOUDY    34  30  86 N8        29.67R WCI  27
SASKATOON      CLOUDY    34  25  69 N8        29.73F WCI  27
CYPRESS HILLS    N/A     30  27  86 NE5         N/A
VAL MARIE        N/A     37  32  81 N6          N/A
ROCKGLEN         N/A     34  30  86 N12         N/A  WCI  25
ASSINIBOIA       N/A     36  30  80 S7          N/A  WCI  30
$$




USA.gov is the U.S. government's official web portal to all federal, state and local government web resources and services.